{"data":{"norad_id":59658,"intl_designator":"2024-084E","name":"STARLINK-31858","alt_names":[],"object_type":"PAYLOAD","status":"ACTIVE","operator":null,"country":"US","launch_date":"2024-05-06","launch_site_code":"AFETR","launch_vehicle":null,"mission":null,"orbit_class":"UNKNOWN","rcs_meters":null,"size_class":null,"mass_kg":null,"dimensions":null,"purposes":["comms"],"wikipedia_slug":null,"has_3d_model":false,"image_url":null,"decayed_at":null,"tle_current":{"epoch":"2026-09-21T18:23:24.145152Z","epoch_age_seconds":58837,"freshness":"FRESH","line1":"1 59658U 24084E   26264.76625168 -.00005846  00000+0 -20282-3 0  9993","line2":"2 59658  43.0051  14.1910 0001670 275.5031  84.5630 15.27621309134360","mean_motion":15.27621309,"eccentricity":0.000167,"inclination_deg":43.0051,"raan_deg":14.191,"arg_perigee_deg":275.5031,"mean_anomaly_deg":84.563,"bstar":-0.00020282,"rev_number":13436,"period_min":94.264199609957,"perigee_km":481.7796073986,"apogee_km":484.07120224181,"semimajor_km":6861.0624048202,"source":"CELESTRAK","updated_at":"2026-09-22T09:00:49.025245Z"}}}